Corvallis, OR

11:18 AM PDT on May 25, 2017 (GMT -0700)
Corvallis Municipal

Weather History for KCVO - November, 2012

Change the Weather History Date:

Tuesday, November 20, 2012

  Actual Average Record
Temperature  
Mean Temperature 52 °F -  
Max Temperature 57 °F 51 °F 62 °F (2002)
Min Temperature 46 °F 38 °F 28 °F (2004)
Degree Days  
Heating Degree Days 14    
Growing Degree Days 2 (Base 50)    
Moisture  
Dew Point 47 °F    
Average Humidity 88    
Maximum Humidity 94    
Minimum Humidity 67    
Precipitation  
Precipitation 0.91 in - - ()
Sea Level Pressure  
Sea Level Pressure 29.70 in    
Wind  
Wind Speed 10 mph (SSE)    
Max Wind Speed 21 mph    
Max Gust Speed 30 mph    
Visibility 10 miles    
Events      
Averages and records for this station are not official NWS values.
T = Trace of Precipitation, MM = Missing Value Source: NWS Daily Summary

Daily Weather History Graph

Daily Weather History Graph

Search for Another Location

Airport or City:

Trip Planner

Search our weather history database for the weather conditions in past years. The results will help you decide how hot, cold, wet, or windy it might be!

Date:

Astronomy

Nov. 20, 2012 Rise Set
Actual Time 7:16 AM PST 4:40 PM PST
Civil Twilight 6:44 AM PST 5:12 PM PST
Nautical Twilight 6:09 AM PST 5:48 PM PST
Astronomical Twilight 5:34 AM PST 6:22 PM PST
Moon 12:45 PM PST (11/20) No Moon Set
Length of Visible Light 10h 27m
Length of Day
9h 23m
First Quarter, 52% of the Moon is Illuminated
Nov 20
First Quarter
Nov 28
Full
Dec 6
Last Quarter
Dec 13
New
Dec 19
First Quarter

Hourly Weather History & Observations

Time (PST) Temp. Windchill Dew Point Humidity Pressure Visibility Wind Dir Wind Speed Gust Speed Precip Events Conditions
12:15 AM 51.8 °F - 50.0 °F 94% 29.76 in 9.0 mi SE 6.9 mph - 0.03 in   Overcast
12:35 AM 51.8 °F - 50.0 °F 94% 29.76 in 9.0 mi SSE 3.5 mph - 0.04 in   Overcast
12:55 AM 51.8 °F - 50.0 °F 94% 29.75 in 8.0 mi SE 6.9 mph - 0.05 in   Overcast
1:15 AM 51.8 °F - 50.0 °F 94% 29.74 in 10.0 mi SE 6.9 mph - 0.01 in   Overcast
1:35 AM 51.8 °F - 50.0 °F 94% 29.75 in 10.0 mi SE 6.9 mph - 0.03 in   Overcast
1:55 AM 51.8 °F - 50.0 °F 94% 29.74 in 10.0 mi SSE 8.1 mph - 0.06 in   Overcast
2:15 AM 51.8 °F - 50.0 °F 94% 29.74 in 10.0 mi SSE 8.1 mph - N/A   Overcast
2:35 AM 51.8 °F - 50.0 °F 94% 29.74 in 9.0 mi SSE 10.4 mph - 0.05 in   Overcast
2:55 AM 51.8 °F - 50.0 °F 94% 29.76 in 9.0 mi SSE 10.4 mph - 0.14 in   Overcast
3:15 AM 51.8 °F - 50.0 °F 94% 29.73 in 10.0 mi SSE 11.5 mph - 0.08 in   Overcast
3:35 AM 51.8 °F - 50.0 °F 94% 29.71 in 10.0 mi ESE 10.4 mph - 0.10 in   Overcast
3:55 AM 51.8 °F - 50.0 °F 94% 29.71 in 10.0 mi SE 13.8 mph - 0.11 in   Overcast
4:15 AM 51.8 °F - 48.2 °F 88% 29.71 in 10.0 mi SE 9.2 mph - 0.01 in   Mostly Cloudy
4:35 AM 50.0 °F - 48.2 °F 94% 29.70 in 9.0 mi SE 5.8 mph - 0.05 in   Overcast
4:55 AM 50.0 °F - 48.2 °F 94% 29.68 in 9.0 mi SSE 6.9 mph - 0.10 in   Overcast
5:15 AM 50.0 °F - 48.2 °F 94% 29.69 in 10.0 mi South 5.8 mph - 0.02 in   Overcast
5:35 AM 50.0 °F - 48.2 °F 94% 29.67 in 7.0 mi Calm Calm - 0.04 in   Overcast
5:55 AM 50.0 °F - 48.2 °F 94% 29.66 in 6.0 mi SSE 10.4 mph - 0.05 in   Overcast
6:15 AM 51.8 °F - 48.2 °F 88% 29.65 in 10.0 mi SSE 9.2 mph - N/A   Mostly Cloudy
6:35 AM 51.8 °F - 48.2 °F 88% 29.65 in 10.0 mi SSE 11.5 mph - N/A   Overcast
6:55 AM 51.8 °F - 48.2 °F 88% 29.64 in 10.0 mi SSE 10.4 mph - N/A   Overcast
7:15 AM 50.0 °F - 48.2 °F 94% 29.63 in 10.0 mi SSE 9.2 mph - N/A   Mostly Cloudy
7:35 AM 50.0 °F - 48.2 °F 94% 29.63 in 10.0 mi SE 17.3 mph - N/A   Scattered Clouds
7:55 AM 51.8 °F - 48.2 °F 88% 29.63 in 10.0 mi SE 16.1 mph - N/A   Overcast
8:15 AM 51.8 °F - 48.2 °F 88% 29.63 in 10.0 mi SSE 17.3 mph - N/A   Overcast
8:35 AM 51.8 °F - 48.2 °F 88% 29.63 in 8.0 mi SSE 15.0 mph - 0.01 in   Overcast
8:55 AM 51.8 °F - 50.0 °F 94% 29.64 in 10.0 mi South 13.8 mph 20.7 mph 0.01 in   Overcast
9:15 AM 51.8 °F - 50.0 °F 94% 29.66 in 5.0 mi SSE 20.7 mph - 0.05 in   Overcast
9:35 AM 51.8 °F - 50.0 °F 94% 29.65 in 6.0 mi SSE 17.3 mph - 0.10 in   Overcast
9:55 AM 51.8 °F - 50.0 °F 94% 29.67 in 8.0 mi SSE 16.1 mph - 0.15 in   Overcast
10:15 AM 51.8 °F - 48.2 °F 88% 29.67 in 9.0 mi South 12.7 mph 24.2 mph 0.03 in   Overcast
10:35 AM 53.6 °F - 48.2 °F 82% 29.68 in 10.0 mi South 12.7 mph - 0.03 in   Mostly Cloudy
10:55 AM 53.6 °F - 50.0 °F 88% 29.69 in 10.0 mi SSE 13.8 mph - 0.03 in   Overcast
11:15 AM 53.6 °F - 50.0 °F 88% 29.70 in 10.0 mi SSE 19.6 mph - N/A   Mostly Cloudy
11:35 AM 53.6 °F - 50.0 °F 88% 29.69 in 10.0 mi South 13.8 mph 19.6 mph 0.02 in   Overcast
11:55 AM 53.6 °F - 48.2 °F 82% 29.70 in 10.0 mi South 15.0 mph - 0.02 in   Overcast
12:15 PM 53.6 °F - 48.2 °F 82% 29.71 in 10.0 mi SSW 20.7 mph 29.9 mph N/A   Mostly Cloudy
12:35 PM 55.4 °F - 46.4 °F 72% 29.70 in 10.0 mi South 16.1 mph 24.2 mph N/A   Mostly Cloudy
12:55 PM 57.2 °F - 46.4 °F 67% 29.71 in 10.0 mi South 12.7 mph 24.2 mph N/A   Scattered Clouds
1:15 PM - - - N/A% - - North - - N/A   Unknown
1:35 PM 55.4 °F - 46.4 °F 72% 29.71 in 10.0 mi South 15.0 mph - N/A   Mostly Cloudy
1:55 PM 55.4 °F - 46.4 °F 72% 29.72 in 10.0 mi SSE 15.0 mph 23.0 mph N/A   Mostly Cloudy
2:15 PM 55.4 °F - 46.4 °F 72% 29.72 in 10.0 mi SSW 15.0 mph 18.4 mph N/A   Mostly Cloudy
2:35 PM 53.6 °F - 44.6 °F 72% 29.76 in 10.0 mi SSW 16.1 mph 21.9 mph N/A   Overcast
2:55 PM 51.8 °F - 44.6 °F 76% 29.75 in 10.0 mi South 16.1 mph 28.8 mph 0.02 in   Overcast
3:15 PM 53.6 °F - 44.6 °F 72% 29.75 in 10.0 mi South 13.8 mph 19.6 mph N/A   Mostly Cloudy
3:35 PM 53.6 °F - 44.6 °F 72% 29.76 in 10.0 mi SSW 15.0 mph 18.4 mph N/A   Overcast
3:55 PM 51.8 °F - 44.6 °F 76% 29.75 in 10.0 mi SSW 6.9 mph - N/A   Scattered Clouds
4:15 PM 51.8 °F - 44.6 °F 76% 29.76 in 10.0 mi South 6.9 mph - N/A   Partly Cloudy
4:35 PM 51.8 °F - 44.6 °F 76% 29.76 in 10.0 mi Calm Calm - N/A   Mostly Cloudy
4:55 PM 50.0 °F - 44.6 °F 82% 29.76 in 10.0 mi East 4.6 mph - N/A   Mostly Cloudy
5:15 PM 50.0 °F - 44.6 °F 82% 29.75 in 10.0 mi Calm Calm - N/A   Mostly Cloudy
5:35 PM 48.2 °F - 44.6 °F 87% 29.76 in 10.0 mi SSE 8.1 mph - N/A   Overcast
5:55 PM 48.2 °F - 46.4 °F 93% 29.76 in 10.0 mi SSE 4.6 mph - 0.01 in   Overcast
6:15 PM 48.2 °F - 44.6 °F 87% 29.75 in 10.0 mi SSE 6.9 mph - N/A   Overcast
6:35 PM 46.4 °F 42.9 °F 44.6 °F 93% 29.74 in 10.0 mi SSE 6.9 mph - N/A   Mostly Cloudy
6:55 PM 46.4 °F - 44.6 °F 93% 29.73 in 10.0 mi Calm Calm - N/A   Overcast
7:15 PM 46.4 °F 43.5 °F 44.6 °F 93% 29.74 in 10.0 mi South 5.8 mph - N/A   Overcast
7:35 PM 46.4 °F 41.9 °F 44.6 °F 93% 29.71 in 10.0 mi ESE 9.2 mph - 0.02 in   Overcast
7:55 PM 46.4 °F 42.4 °F 44.6 °F 93% 29.70 in 10.0 mi ESE 8.1 mph - 0.02 in   Overcast
8:15 PM 46.4 °F 41.5 °F 44.6 °F 93% 29.69 in 10.0 mi SE 10.4 mph - N/A   Mostly Cloudy
8:35 PM 46.4 °F 41.9 °F 44.6 °F 93% 29.69 in 10.0 mi SE 9.2 mph - N/A   Partly Cloudy
8:55 PM 46.4 °F 41.5 °F 44.6 °F 93% 29.70 in 10.0 mi SE 10.4 mph - N/A   Clear
9:15 PM 46.4 °F 41.1 °F 44.6 °F 93% 29.69 in 10.0 mi SSE 11.5 mph - N/A   Partly Cloudy
9:35 PM 46.4 °F 41.9 °F 44.6 °F 93% 29.68 in 10.0 mi SSE 9.2 mph - N/A   Scattered Clouds
9:55 PM 46.4 °F 41.9 °F 44.6 °F 93% 29.68 in 10.0 mi SSE 9.2 mph - N/A   Mostly Cloudy
10:15 PM 46.4 °F 40.7 °F 44.6 °F 93% 29.67 in 10.0 mi SSE 12.7 mph - N/A   Mostly Cloudy
10:35 PM 46.4 °F 40.4 °F 44.6 °F 93% 29.64 in 10.0 mi SSE 13.8 mph - N/A   Mostly Cloudy
10:55 PM 46.4 °F 40.4 °F 44.6 °F 93% 29.63 in 10.0 mi SE 13.8 mph - N/A   Overcast
11:15 PM 46.4 °F 41.5 °F 44.6 °F 93% 29.64 in 10.0 mi South 10.4 mph - 0.01 in   Overcast
11:35 PM 46.4 °F 42.9 °F 44.6 °F 93% 29.65 in 10.0 mi SSW 6.9 mph - 0.04 in   Overcast
11:55 PM 46.4 °F 41.1 °F 44.6 °F 93% 29.68 in 9.0 mi WSW 11.5 mph 17.3 mph 0.14 in   Mostly Cloudy